Weather History for KBVS - November, 2011

Change the Weather History Date:

Saturday, November 5, 2011

  Actual Average Record
Temperature  
Mean Temperature 42 °F -  
Max Temperature 48 °F 53 °F 66 °F (1980)
Min Temperature 35 °F 39 °F 27 °F (1961)
Degree Days  
Heating Degree Days 24    
Moisture  
Dew Point 35 °F    
Average Humidity 80    
Maximum Humidity 100    
Minimum Humidity 58    
Precipitation  
Precipitation 0.00 in - - ()
Sea Level Pressure  
Sea Level Pressure 29.83 in    
Wind  
Wind Speed 5 mph (NE)    
Max Wind Speed 10 mph    
Max Gust Speed -    
Visibility 10 miles    
Events      
Averages and records for this station are not official NWS values.
T = Trace of Precipitation, MM = Missing Value Source: NWS Daily Summary

Daily Weather History Graph

Daily Weather History Graph

Search for Another Location

Airport or City:

Trip Planner

Search our weather history database for the weather conditions in past years. The results will help you decide how hot, cold, wet, or windy it might be!

Date:

Astronomy

Nov. 05, 2011 Rise Set
Actual Time 8:01 AM PDT 5:44 PM PDT
Civil Twilight 7:28 AM PDT 6:17 PM PDT
Nautical Twilight 6:51 AM PDT 6:54 PM PDT
Astronomical Twilight 6:14 AM PDT 7:31 PM PDT
Moon 3:22 PM PDT (11/5) 2:56 AM PDT (11/5)
Length of Visible Light 10h 48m
Length of Day
9h 42m
Waxing Gibbous, 79% of the Moon is Illuminated
Nov 5
Waxing Gibbous
Nov 10
Full
Nov 18
Last Quarter
Nov 24
New
Dec 2
First Quarter

Hourly Weather History & Observations

Time (PDT) Temp. Windchill Dew Point Humidity Pressure Visibility Wind Dir Wind Speed Gust Speed Precip Events Conditions
12:15 AM 37.4 °F - 35.6 °F 93% 29.89 in 10.0 mi Calm Calm - 0.00 in   Mostly Cloudy
12:35 AM 37.4 °F 34.9 °F 35.6 °F 93% 29.89 in 10.0 mi North 3.5 mph - 0.00 in   Overcast
1:15 AM 37.4 °F 31.4 °F 35.6 °F 93% 29.88 in 10.0 mi NE 8.1 mph - 0.00 in   Mostly Cloudy
1:35 AM 37.4 °F 32.8 °F 35.6 °F 93% 29.88 in 10.0 mi NE 5.8 mph - 0.00 in   Overcast
1:55 AM 37.4 °F 32.8 °F 37.4 °F 100% 29.88 in 10.0 mi NE 5.8 mph - 0.00 in   Overcast
2:35 AM 37.4 °F 32.8 °F 37.4 °F 100% 29.87 in 10.0 mi NE 5.8 mph - 0.00 in   Mostly Cloudy
2:55 AM 37.4 °F 33.8 °F 37.4 °F 100% 29.86 in 10.0 mi NE 4.6 mph - 0.00 in   Overcast
3:15 AM 39.2 °F 35.0 °F 37.4 °F 93% 29.86 in 10.0 mi NE 5.8 mph - 0.00 in   Overcast
3:35 AM 39.2 °F 35.0 °F 35.6 °F 87% 29.85 in 10.0 mi NE 5.8 mph - 0.00 in   Overcast
3:55 AM 39.2 °F 34.2 °F 35.6 °F 87% 29.85 in 10.0 mi ENE 6.9 mph - 0.00 in   Mostly Cloudy
4:15 AM 39.2 °F 35.9 °F 35.6 °F 87% 29.85 in 10.0 mi ENE 4.6 mph - 0.00 in   Overcast
4:35 AM 39.2 °F - 35.6 °F 87% 29.84 in 10.0 mi Calm Calm - 0.00 in   Overcast
4:55 AM 39.2 °F 35.0 °F 35.6 °F 87% 29.84 in 10.0 mi ENE 5.8 mph - 0.00 in   Overcast
5:15 AM 39.2 °F 37.0 °F 35.6 °F 87% 29.84 in 10.0 mi East 3.5 mph - 0.00 in   Overcast
5:35 AM 39.2 °F 35.0 °F 35.6 °F 87% 29.83 in 10.0 mi ENE 5.8 mph - 0.00 in   Overcast
5:55 AM 37.4 °F 32.8 °F 35.6 °F 93% 29.83 in 10.0 mi ENE 5.8 mph - 0.00 in   Scattered Clouds
6:15 AM 37.4 °F - 33.8 °F 87% 29.83 in 10.0 mi Calm Calm - 0.00 in   Partly Cloudy
6:55 AM 39.2 °F 34.2 °F 35.6 °F 87% 29.82 in 10.0 mi East 6.9 mph - 0.00 in   Overcast
7:15 AM 39.2 °F 35.0 °F 35.6 °F 87% 29.82 in 10.0 mi ENE 5.8 mph - 0.00 in   Overcast
7:35 AM 37.4 °F 32.8 °F 33.8 °F 87% 29.82 in 10.0 mi ENE 5.8 mph - 0.00 in   Mostly Cloudy
7:55 AM 39.2 °F 33.6 °F 33.8 °F 81% 29.82 in 10.0 mi ENE 8.1 mph - 0.00 in   Overcast
8:15 AM 39.2 °F 34.2 °F 33.8 °F 81% 29.82 in 10.0 mi ENE 6.9 mph - 0.00 in   Overcast
8:35 AM 39.2 °F 34.2 °F 35.6 °F 87% 29.82 in 10.0 mi ENE 6.9 mph - 0.00 in   Overcast
8:55 AM 39.2 °F 33.6 °F 35.6 °F 87% 29.83 in 10.0 mi ENE 8.1 mph - 0.00 in   Overcast
9:15 AM 39.2 °F 33.6 °F 35.6 °F 87% 29.83 in 10.0 mi ENE 8.1 mph - 0.00 in   Overcast
9:35 AM 37.4 °F 32.1 °F 35.6 °F 93% 29.83 in 10.0 mi NE 6.9 mph - 0.00 in   Scattered Clouds
9:55 AM 39.2 °F 33.0 °F 35.6 °F 87% 29.84 in 10.0 mi ENE 9.2 mph - 0.00 in   Clear
10:15 AM 41.0 °F 35.2 °F 35.6 °F 81% 29.84 in 10.0 mi NE 9.2 mph - 0.00 in   Scattered Clouds
10:35 AM 42.8 °F 37.5 °F 35.6 °F 76% 29.84 in 10.0 mi ENE 9.2 mph - 0.00 in   Clear
10:55 AM 42.8 °F 37.0 °F 35.6 °F 76% 29.84 in 10.0 mi ENE 10.4 mph - 0.00 in   Clear
11:15 AM 44.6 °F 39.7 °F 33.8 °F 66% 29.84 in 10.0 mi East 9.2 mph - 0.00 in   Clear
11:35 AM 44.6 °F 40.2 °F 35.6 °F 71% 29.84 in 10.0 mi East 8.1 mph - 0.00 in   Clear
11:55 AM 46.4 °F 42.4 °F 35.6 °F 66% 29.84 in 10.0 mi East 8.1 mph - 0.00 in   Clear
12:15 PM 46.4 °F 42.9 °F 33.8 °F 62% 29.83 in 10.0 mi East 6.9 mph - 0.00 in   Clear
12:55 PM 48.2 °F - 33.8 °F 58% 29.83 in 9.0 mi SE 3.5 mph - 0.00 in   Clear
1:15 PM 48.2 °F - 33.8 °F 58% 29.83 in 10.0 mi SE 4.6 mph - 0.00 in   Clear
1:35 PM 48.2 °F - 33.8 °F 58% 29.82 in 10.0 mi North 3.5 mph - 0.00 in   Clear
1:55 PM 48.2 °F - 35.6 °F 62% 29.82 in 9.0 mi East 4.6 mph - 0.00 in   Clear
2:15 PM 48.2 °F - 33.8 °F 58% 29.82 in 9.0 mi ESE 3.5 mph - 0.00 in   Clear
2:55 PM 48.2 °F - 33.8 °F 58% 29.81 in 9.0 mi ENE 5.8 mph - 0.00 in   Clear
3:15 PM 48.2 °F - 33.8 °F 58% 29.81 in 9.0 mi Calm Calm - 0.00 in   Clear
3:35 PM 48.2 °F - 33.8 °F 58% 29.81 in 9.0 mi Calm Calm - 0.00 in   Clear
3:55 PM 48.2 °F - 33.8 °F 58% 29.81 in 9.0 mi Calm Calm - 0.00 in   Clear
4:15 PM 48.2 °F - 33.8 °F 58% 29.81 in 7.0 mi Calm Calm - 0.00 in   Clear
4:35 PM 48.2 °F - 37.4 °F 66% 29.81 in 9.0 mi NNW 5.8 mph - 0.00 in   Clear
4:55 PM 44.6 °F 41.4 °F 35.6 °F 71% 29.81 in 10.0 mi NW 5.8 mph - 0.00 in   Clear
5:15 PM 42.8 °F 39.3 °F 35.6 °F 76% 29.81 in 10.0 mi NW 5.8 mph - 0.00 in   Clear
5:35 PM 41.0 °F 38.0 °F 35.6 °F 81% 29.82 in 10.0 mi NW 4.6 mph - 0.00 in   Clear
5:55 PM 39.2 °F 35.9 °F 35.6 °F 87% 29.82 in 10.0 mi NW 4.6 mph - 0.00 in   Clear
6:15 PM 39.2 °F 35.0 °F 35.6 °F 87% 29.82 in 10.0 mi NW 5.8 mph - 0.00 in   Clear
6:35 PM 37.4 °F 32.8 °F 33.8 °F 87% 29.82 in 10.0 mi NW 5.8 mph - 0.00 in   Clear
6:55 PM 37.4 °F 32.8 °F 35.6 °F 93% 29.83 in 10.0 mi NNW 5.8 mph - 0.00 in   Clear
7:15 PM 35.6 °F 32.8 °F 33.8 °F 93% 29.83 in 10.0 mi NW 3.5 mph - 0.00 in   Clear
7:35 PM 37.4 °F 34.9 °F 37.4 °F 100% 29.84 in 10.0 mi NNW 3.5 mph - 0.00 in   Clear
7:55 PM 37.4 °F - 35.6 °F 93% 29.84 in 10.0 mi Calm Calm - 0.00 in   Clear
8:15 PM 37.4 °F - 33.8 °F 87% 29.84 in 10.0 mi Calm Calm - 0.00 in   Clear
8:35 PM 39.2 °F 33.6 °F 33.8 °F 81% 29.84 in 10.0 mi NNE 8.1 mph - 0.00 in   Clear
8:55 PM 37.4 °F 32.1 °F 33.8 °F 87% 29.84 in 10.0 mi NE 6.9 mph - 0.00 in   Clear
9:15 PM 37.4 °F 32.1 °F 33.8 °F 87% 29.84 in 10.0 mi NE 6.9 mph - 0.00 in   Clear
9:35 PM 37.4 °F 32.1 °F 33.8 °F 87% 29.85 in 10.0 mi NE 6.9 mph - 0.00 in   Clear
9:55 PM 37.4 °F 31.4 °F 33.8 °F 87% 29.85 in 10.0 mi NE 8.1 mph - 0.00 in   Clear
10:15 PM 37.4 °F 31.4 °F 33.8 °F 87% 29.85 in 10.0 mi NE 8.1 mph - 0.00 in   Clear
10:35 PM 37.4 °F 31.4 °F 33.8 °F 87% 29.85 in 10.0 mi NNE 8.1 mph - 0.00 in   Clear
10:55 PM 37.4 °F 30.8 °F 33.8 °F 87% 29.86 in 10.0 mi NE 9.2 mph - 0.00 in   Clear
11:15 PM 35.6 °F 28.6 °F 33.8 °F 93% 29.86 in 10.0 mi NNE 9.2 mph - 0.00 in   Clear
11:35 PM 37.4 °F 30.3 °F 33.8 °F 87% 29.87 in 10.0 mi NE 10.4 mph - 0.00 in   Clear
11:55 PM 37.4 °F 30.8 °F 33.8 °F 87% 29.87 in 10.0 mi NE 9.2 mph - 0.00 in   Clear